Location: Forst
(46.9333°N, 15.4333°E)
Time: 16:31:48
(UTC+00:00)

Cosmos 1633 Rocket - Pass Details

Date: 01 December 2020
Orbit: 607 x 623 km, 82.5° (Epoch: 28 January)

Event Time Altitude Azimuth Distance (km) Brightness Sun altitude
Rises 16:24:01 0° 349° (N) 2,897 6.4 -12.0°
Reaches altitude 10° 16:26:15 10° 348° (NNW) 1,984 5.6 -12.4°
Maximum altitude 16:30:38 76° 264° (W) 636 3.2 -13.1°
Drops below altitude 10° 16:34:58 10° 178° (S) 1,959 5.8 -13.8°
Sets 16:37:10 0° 177° (S) 2,856 6.7 -14.1°
